Main page
METAR-TAF:

METAR-TAF

Airports :

Rantoul National Aviation Center Airport (Frank Elliott Field)

Rantoul, Illinois, United States

latitude: 40-17-37N, longitude: 088-08-33W, elevation: 738 ft

Current weather observation

The report was made 15 minutes ago, at 02:55 UTC
Wind 9 mph from the West/Southwest
Temperature 79°F
Humidity 51%
Pressure 29.92 in. Hg
Visibility: 10 miles
Clear sky

METAR: KTIP 030255Z AUTO 24008KT 10SM CLR 26/15 A2992 RMK AO2 T02590154

Time: 22:10 (03:10 UTC)


TAF: missing

Weather observations and forecasts of more than 4000 airports (METAR and TAF reports).

The available stations are represented by yellow and red dots on the map.

Hover mouse over dot to see the name of the station.

Then click to see weather observations and forecasts.

To change the map : click on the green buttons with a black cross to zoom in, on the green button with a dash to zoom out, or on the green arrows for adjacent maps.


METAR-TAF: